Regional Weather Roundup
Issued by NWS Upton, NY

Current Version | Previous Version | Graphics & Text | Print | Product List | Glossary Off
Versions: 1 2 3 4 5 6 7 8 9 10 11 12 13 14 15 16 17 18 19 20 21 22 23 24 25 26 27 28 29 30 31 32 33 34 35 36 37 38 39 40 41 42 43 44 45 46 47 48 49 50

000
ASUS41 KOKX 222305
RWROKX
REGIONAL WEATHER ROUNDUP
NATIONAL WEATHER SERVICE NEW YORK NY
700 PM EDT MON SEP 22 2014

NOTE: "FAIR" INDICATES FEW OR NO CLOUDS BELOW 12,000 FEET WITH NO
SIGNIFICANT WEATHER AND/OR OBSTRUCTIONS TO VISIBILITY.

NYZ071-072-176-178-NJZ106-104-230000-
NEW YORK CITY METRO AREA


CITY           SKY/WX    TMP DP  RH WIND       PRES   REMARKS
CENTRAL PARK   CLEAR     62  40  44 VRB7G18   30.05R
LAGUARDIA APRT MOCLDY    63  43  48 NW15      30.02R
KENNEDY INTL   MOCLDY    65  40  39 W20G26    30.03R
NEWARK/LIBERTY PTCLDY    64  41  42 NW12G18   30.03R
BRNX BOT. GARD   N/A     61  41  48 NW9       30.05R
TETERBORO      CLEAR     62  39  42 NW14      30.02R
$$

NYZ177-179-078>081-230000-
LONG ISLAND NEW YORK

CITY           SKY/WX    TMP DP  RH WIND       PRES   REMARKS
FARMINGDALE    CLEAR     64  43  46 NW13G18   30.01R
ISLIP          MOCLDY    62  44  51 NW10      29.98R
SHIRLEY        CLEAR     63  45  51 NW12      29.99R
WESTHAMPTON    CLEAR     64  43  46 W9        29.98R
MONTAUK POINT    N/A     68  52  56 W9G18     29.95R
$$

NYZ052-065-067-230000-
HUDSON VALLEY

CITY           SKY/WX    TMP DP  RH WIND       PRES   REMARKS
WHITE PLAINS   CLEAR     58  40  51 NW18      30.01R
NEWBURGH       PTCLDY    55  41  58 NW12      30.05R
MONTGOMERY     CLEAR     57  38  48 NW9       30.05R
POUGHKEEPSIE   CLEAR     58  38  47 W8        30.03R
ALBANY         MOCLDY    54  39  57 NW13      30.04R
$$

NJZ001-105-106-008-010-013-015-019>022-104-230000-
NEW JERSEY

CITY           SKY/WX    TMP DP  RH WIND       PRES   REMARKS
NEWARK/LIBERTY PTCLDY    64  41  42 NW12G18   30.03R
TETERBORO      CLEAR     62  39  42 NW14      30.02R
CALDWELL       CLEAR     60  39  45 NW12G18   30.04R
MORRISTOWN     PTCLDY    59  43  55 N8G14     30.04R
SOMERVILLE     CLEAR     63  42  46 N6        30.03R
LINDEN         FAIR      67  45  44 NW13      30.05R
SUSSEX         MOCLDY    59  42  53 VRB5      30.06R
ANDOVER          N/A     56  41  57 N5        30.06R
TRENTON        PTCLDY    63  41  44 NW8       30.04R
MILLVILLE      PTCLDY    61  48  62 W3        30.06R
ATLANTIC CITY  CLEAR     64  50  60 W6        30.05R
WRIGHTSTOWN    PTCLDY    63  45  51 NW6       30.02R
TOMS RIVER     CLEAR     63  46  55 NW5       30.04R
BELMAR         PTCLDY    64  45  48 NW13      30.02R
$$

PAZ047>061-062-071-230000-
EASTERN PENNSYLVANIA

CITY           SKY/WX    TMP DP  RH WIND       PRES   REMARKS
PHILADELPHIA   MOCLDY    67  45  45 NW15G21   30.06R
ALLENTOWN      CLEAR     60  42  51 NW7       30.06R
SCRANTON       CLEAR     55  40  56 N8        30.09R
$$

CTZ002-004>006-009-010-012-RIZ004-006-007-MAZ004-011-015-230000-
SOUTHERN NEW ENGLAND
 IN CT

CITY           SKY/WX    TMP DP  RH WIND       PRES   REMARKS
BRADLEY INTL   PTCLDY    58  40  51 NW16      29.98R
HARTFORD       CLEAR     60  43  53 N14G22    29.98R
DANBURY        CLEAR     57  39  51 W8        30.02R
WTRBRY/OXFORD  PTCLDY    57  43  58 NW14      30.00R
BRIDGEPORT     CLEAR     63  43  48 W9G20     29.99R
MERIDEN        CLEAR     62  43  49 NW14      29.98R
NEW HAVEN      PTCLDY    66  45  46 VRB7      29.97R
CHESTER        FAIR      63  48  59 NW6       29.96R
GROTON         CLEAR     64  48  56 N12       29.93R
WILLIMANTIC    CLEAR     61  44  53 NW7G18    29.96R

 IN RI

CITY           SKY/WX    TMP DP  RH WIND       PRES   REMARKS
PROVIDENCE     PTCLDY    63  44  50 W12       29.94R
BLOCK ISLAND   MOCLDY    66  48  52 NW6       29.94R
WESTERLY       PTCLDY    65  47  52 NW3       29.94R

 IN MA

CITY           SKY/WX    TMP DP  RH WIND       PRES   REMARKS
BOSTON         PTCLDY    64  41  42 W14       29.91R
WORCESTER      CLEAR     53  39  59 W18G25    29.95R
WESTFIELD      PTCLDY    55  38  52 NW12G23   29.99R
PROVINCETOWN   CLEAR     63  50  63 W13       29.90R
NANTUCKET      CLEAR     65  56  72 W10       29.91R
$$

ANZ330-335-338-340-345-350-353-355-230000-
COASTAL MARINE OBSERVATIONS


STATION/POSITION TIME  SKY/WX   TEMP    WIND        PRES    VSBY  WAVE
                                AIR SEA DIR/SP/G                  HT/PER
                 (UTC)          (F)     (DEG/KT/KT) (MB)    (MI)  (FT/S)
NY HARB ENTRANCE 2300            66 70  330/ 17/ 21 1015.8          4/10
4S FIRE IS       NOT AVBL
20S FIRE ISLAND  2300            67 68  300/ 19/ 23 1015.2          6/10
23SW MTP         2300                                 N/A           7/10
HUDSON CANYON    2300            68 71  290/ 16/ 17 1015.4          6/10
EXECUTION ROCKS  2300            64 70  330/ 16/ 23   N/A
WESTERN LI SOUND 2300            63     310/ 16/ 21   N/A           1/ 2
CENTRAL LI SOUND 2200            67 70  270/ 19/ 21   N/A           2/ 4
EASTERN LI SOUND 2200            69 68  310/ 12/ 16   N/A
ROBBINS REEF     2200            64     330/ 19/ 24 1014.8
$$


>>>>>>>>>>>>>>>>>>>>>>>>>>>> KEY <<<<<<<<<<<<<<<<<<<<<<<<<<<
>                                                          <
>     SKY/WX - SKY CONDITION/PRESENT WEATHER               <
>     TMP    - TEMPERATURE IN FAHRENHEIT                   <
>     DP     - DEWPOINT IN FAHRENHEIT                      <
>     RH     - RELATIVE HUMIDITY IN PERCENT                <
>     WIND   - DIRECTION AND SPEED IN MPH                  <
>     PRES   - MEAN SEA LEVEL PRESSURE IN INCHES OF HG     <
>     WCI    - WIND CHILL INDEX                            <
>     VSB    - VISIBILITY IN MILES                         <
>     HX     - HEAT INDEX                                  <
>     TC     - TEMPERATURE IN CELSIUS                      <
>     VRB    - VARIABLE WIND DIRECTION                     <
>                                                          <
>>>>>>>>>>>>>>>>>>>>>>>>>>>> KEY <<<<<<<<<<<<<<<<<<<<<<<<<<<




USA.gov is the U.S. government's official web portal to all federal, state and local government web resources and services.